User: anonymous   Login
Location: Meriden
(44.0740°N, 93.3870°W)
Time: 01:04:49
(UTC-05:00)
Language:

Hamsat - Orbit

View from above orbital plane
View from above orbital plane
View from above satellite
View from above satellite

Ground track
Ground track

The orbit data is extracted from the following two-line orbital elements,

1 28650U 05017B   15185.17261715  .00000961  00000-0  11138-3 0  9997
2 28650 097.5754 176.8664 0023562 339.3543 020.6719 14.87475275549975
Epoch (UTC): 04 July 2015 04:08:34
Eccentricity: 0.0023562
inclination: 97.5754°
perigee height: 589 km
apogee height: 622 km
right ascension of ascending node: 176.8664°
argument of perigee: 339.3543°
revolutions per day: 14.87475275
mean anomaly at epoch: 20.6719°
orbit number at epoch: 54997

The dashed part of the orbit path shows where the satellite is in the earth's shadow,  

DLR